Regional Weather Roundup
Issued by NWS Glasgow, MT

Home | Current Version | Previous Version | Text Only | Print | Product List | Glossary On
Versions: 1 2 3 4 5 6 7 8 9 10 11 12 13 14 15 16 17 18 19 20 21 22 23 24 25 26 27 28 29 30 31 32 33 34 35 36 37 38 39 40 41 42 43 44 45 46 47 48 49 50
152
ASUS45 KGGW 181115
RWRGGW
HOURLY REGIONAL WEATHER ROUNDUP FOR NORTHEAST MONTANA
NATIONAL WEATHER SERVICE GLASGOW MONTANA
400 AM MST MON DEC 18 2017

NOTE: "FAIR" INDICATES FEW OR NO CLOUDS BELOW 12,000 FEET WITH NO
SIGNIFICANT WEATHER AND/OR OBSTRUCTIONS TO VISISBILITY.

NORTHEAST MONTANA


CITY           SKY/WX    TMP DP  RH WIND       PRES   REMARKS
GLASGOW        LGT RAIN  33  26  75 SW3       29.60F
PLENTYWOOD       N/A     32  25  75 W9          N/A
WOLF POINT     CLOUDY    30  22  72 W5        29.62S
JORDAN           N/A     33  25  72 SE3       29.64F
WINNETT          N/A     35  24  64 S3          N/A
SIDNEY         PTCLDY    36  23  59 SW10      29.61F
GLENDIVE       CLOUDY    35  22  58 SW10      29.65F
MALTA            N/A     38  32  79 SW6         N/A
SCOBEY           N/A     31  18  58 CALM      29.58S

FORT PECK REPORTS


CITY           SKY/WX    TMP DP  RH WIND       PRES   REMARKS
FORT PECK        N/A     37  27  67 SW9G18      N/A
THE PINES        N/A     40  30  67 SW7G15      N/A

SOUTHEAST MONTANA


CITY           SKY/WX    TMP DP  RH WIND       PRES   REMARKS
BILLINGS       CLOUDY    34  23  64 SW22G32   29.72S
MILES CITY     PTCLDY    35  24  64 SW6       29.68F
BAKER          CLOUDY    31  23  72 W15       29.68F
LIVINGSTON     CLOUDY    35  23  61 SW49G64   29.77R

CENTRAL MONTANA


CITY           SKY/WX    TMP DP  RH WIND       PRES   REMARKS
HAVRE          CLOUDY    42  28  57 SW16      29.56F
LEWISTOWN      CLOUDY    42  29  59 SW24G32   29.65S
GREAT FALLS    CLOUDY    42  26  53 SW33G45   29.64F
CUT BANK       CLOUDY    36  28  73 W23       29.58S
HELENA         CLOUDY    28  22  78 VRB3      29.77F
BUTTE          CLOUDY    39  25  57 VRB5      29.86F
BOZEMAN        CLOUDY    27  22  81 CALM      29.83F

WESTERN MONTANA


CITY           SKY/WX    TMP DP  RH WIND       PRES   REMARKS
MISSOULA       MIX PCPN  27  24  89 CALM      29.88F
KALISPELL      NOT AVBL

NORTH DAKOTA


CITY           SKY/WX    TMP DP  RH WIND       PRES   REMARKS
WILLISTON      CLOUDY    35  23  61 SW9       29.58F
DICKINSON      CLOUDY    30  21  69 SW15      29.62F
MINOT          CLOUDY    38  23  55 SW14      29.54F
BISMARCK       CLOUDY    31  23  72 W6        29.67F

SOUTHERN SASKATCHEWAN


CITY           SKY/WX    TMP DP  RH WIND       PRES   REMARKS
REGINA         MOCLDY    27  23  86 W9        29.50S
MOOSE JAW      CLOUDY    34  23  64 W12       29.52S
ESTEVAN        CLOUDY    30  25  80 SW8       29.52F
SWIFT CURRENT  CLOUDY    32  25  74 W7        29.50F





USA.gov is the U.S. government's official web portal to all federal, state and local government web resources and services.